Regional Weather Roundup
Issued by NWS Newport/Morehead, NC

Current Version | Previous Version | Graphics & Text | Print | Product List | Glossary Off
Versions: 1 2 3 4 5 6 7 8 9 10 11 12 13 14 15 16 17 18 19 20 21 22 23 24 25 26 27 28 29 30 31 32 33 34 35 36 37 38 39 40 41 42 43 44 45 46 47 48 49 50

000
ASUS42 KMHX 292013
RWRMHX
WEATHER ROUNDUP FOR EASTERN NORTH CAROLINA
NATIONAL WEATHER SERVICE NEWPORT/MOREHEAD CITY NC
400 PM EDT SAT AUG 29 2015

NOTE: "FAIR" INDICATES FEW OR NO CLOUDS BELOW 12,000 FEET
WITH NO SIGNIFICANT WEATHER AND/OR OBSTRUCTIONS TO VISIBILITY

NCZ015>017-031-032-045>047-102-103-292100-
NORTH COAST

CITY           SKY/WX    TMP DP  RH WIND       PRES   REMARKS
EDENTON        PTSUNNY   82  62  50 E8        30.16F
ELIZABETH CITY CLOUDY    80  62  54 NE10      30.17F
KITTY HAWK     CLOUDY    81  63  54 NE8       30.15S
MANTEO         CLOUDY    78  64  63 NE9       30.16F

$$

NCZ045>047-081-094-103-104-292100-
CENTRAL COAST

CITY           SKY/WX    TMP DP  RH WIND       PRES   REMARKS
FRISCO         CLOUDY    78  71  79 NE13G21   30.13F
SWANQUARTER    NOT AVBL

$$

NCZ095-097-098-100-101-292100-
SOUTHERN COAST

CITY           SKY/WX    TMP DP  RH WIND       PRES   REMARKS
BEAUFORT       CLOUDY    81  71  71 N13       30.12F
CEDAR ISLAND   NOT AVBL
JACKSONVILLE   CLOUDY    85  64  49 N8        30.13F
PINEY ISLAND   CLOUDY   N/A N/A N/A NE16      30.13F
WILMINGTON     PTSUNNY   85  67  54 N9        30.13F


$$

NCZ011>013-027>030-043-044-078>080-089-090>093-098-292100-
COASTAL PLAIN

CITY           SKY/WX    TMP DP  RH WIND       PRES   REMARKS
AHOSKIE        PTSUNNY   83  57  42 E3        30.16F
CLINTON        PTSUNNY   84  61  44 NE7       30.16F
ELIZABETHTOWN  MOSUNNY   84  59  42 N3        30.15F
GOLDSBORO      CLOUDY    84  60  44 E9        30.14F
GREENVILLE     CLOUDY    82  61  47 E7        30.16F
HAVELOCK       PTSUNNY   85  67  54 NE12      30.14F
KENANSVILLE      N/A     84  58  42 CALM      30.16F
KINSTON        CLOUDY    84  55  37 E6        30.16F
NEW BERN       PTSUNNY   84  62  47 N12       30.15F
RICHLANDS      CLOUDY    82  61  47 N7        30.14F
ROCKY MOUNT    CLOUDY    86  54  33 MISG      30.16F
WASHINGTON     CLOUDY    82  62  50 NE7       30.15F
WHITEVILLE     MOSUNNY   84  61  45 N6        30.14F

$$

AMZ130-135-150-152-154-156-158-170-250-252-270-ANZ085-086-088-633-658-670-292100-
MARINE OBSERVATIONS

STATION/POSITION TIME  TEMP    WIND        PRES    WAVE   SWELL
                       AIR SEA DIR/SP/G            HT/PER HT/PER
                 (UTC) (F)     (DEG/KT/KT) (MB)    (FT/S) (FT/S)
CHESAPEAKE LIGHT 2000   76      70/ 10/ 11 1022.3
64 E VA BEACH    1950   77 78   60/ 14/ 16 1020.9    4/11   3/11
DUCK             NOT AVBL
2 E DUCK         1911      79                N/A     4/12   2/12
OREGON INLET     NOT AVBL
13E OREGON INLT  2000      78                N/A     5/11   2/11
HATTERAS CG      NOT AVBL
DIAMOND BUOY     1950   78 82   20/ 19/ 21 1019.4    5/11   3/11
CAPE LOOKOUT     2000   80      40/ 18/ 21 1019.6
BEAUFORT LAB     NOT AVBL
30 SE NEW RVR IN 1908   80 81   60/ 16/ 19 1020.6
30 SE NEW RVR IN 1925      82                N/A     5/11   2/11
27 SE WRIGHTSVLE 1900   78 82   50/ 14/ 16   N/A
5 SE WRIGHTSVLE  1908   81 82   40/  8/ 12 1020.6
225 S CAPE HAT   1950   82 84  250/  4/  6 1019.8    4/11   3/11
41 SE CHARLESTON 1950   80 85   30/ 16/ 16 1019.4    4/ 6   2/11

$$


USA.gov is the U.S. government's official web portal to all federal, state and local government web resources and services.